This demonstration page uses our WeatherBlox Daily Observations layout. Learn more.

Left ArrowRight Arrow

39.08367, -84.50855

Hourly Observations for November 4, 2022

Temp ( °F °C ) Dew Point ( °F °C ) Humidity (%) Winds ( mph kmh ) Pressure ( in mb ) Visibility ( mi km ) Precip ( " mm )
12:14 am 00:14 Clear with Mist and Fog 49 9.4 48 8.9 97 97 Calm 30.20 1023 2 3 0.00 0.00
12:29 am 00:29 Clear with Mist and Fog 48 8.9 48 8.9 100 100 Calm 30.20 1023 3 4 0.00 0.00
12:43 am 00:43 Clear with Mist and Fog 48 8.9 48 8.9 100 100 Calm 30.20 1023 1 1 0.00 0.00
12:59 am 00:59 Clear with Mist and Fog 48 8.9 48 8.9 100 100 Calm 30.19 1022 1 1 0.00 0.00
1:11 am 01:11 Clear with Mist and Fog 48 8.9 47 8.3 96 96 Calm 30.19 1022 3 4 0.00 0.00
1:18 am 01:18 Clear with Mist and Fog 48 8.9 48 8.9 100 100 Calm 30.19 1022 3 5 0.00 0.00
1:22 am 01:22 Clear with Mist and Fog 48 8.9 48 8.9 100 100 Calm 30.19 1022 2 3 0.00 0.00
1:53 am 01:53 Clear with Mist and Fog 47 8.3 47 8.3 100 100 Calm 30.18 1022 1 1 0.00 0.00
2:09 am 02:09 Clear with Fog 47 8.3 47 8.3 100 100 Calm 30.19 1022 0 0 0.00 0.00
2:20 am 02:20 Clear with Fog 47 8.3 47 8.3 100 100 Calm 30.19 1022 1 1 0.00 0.00
2:33 am 02:33 Clear with Mist and Fog 47 8.3 47 8.3 100 100 Calm 30.18 1022 1 2 0.00 0.00
2:43 am 02:43 Clear with Fog 46 7.8 46 7.8 100 100 Calm 30.18 1022 1 1 0.00 0.00
2:53 am 02:53 Clear with Fog 46 7.8 46 7.8 100 100 Calm 30.17 1022 1 1 0.00 0.00
3:05 am 03:05 Clear with Mist and Fog 46 7.8 46 7.8 100 100 Calm 30.18 1022 1 2 0.00 0.00
3:30 am 03:30 Clear with Fog 46 7.8 46 7.8 100 100 Calm 30.18 1022 1 1 0.00 0.00
3:46 am 03:46 Clear with Mist and Fog 46 7.8 46 7.8 100 100 Calm 30.18 1022 1 2 0.00 0.00
3:53 am 03:53 Clear with Fog 45 7.2 45 7.2 100 100 Calm 30.17 1022 0 0 0.00 0.00
4:05 am 04:05 Clear with Mist and Fog 46 7.8 46 7.8 100 100 Calm 30.18 1022 1 2 0.00 0.00
4:21 am 04:21 Clear with Fog 45 7.2 45 7.2 100 100 Calm 30.18 1022 1 1 0.00 0.00
4:38 am 04:38 Clear with Mist and Fog 46 7.8 46 7.8 100 100 Calm 30.18 1022 3 5 0.00 0.00
4:44 am 04:44 Clear with Mist and Fog 45 7.2 45 7.2 100 100 Calm 30.18 1022 1 2 0.00 0.00
4:53 am 04:53 Clear with Fog 45 7.2 45 7.2 100 100 Calm 30.16 1022 0 0 0.00 0.00
5:01 am 05:01 Clear with Fog 44 6.7 43 6.1 96 96 Calm 30.19 1022 1 1 0.00 0.00
5:15 am 05:15 Clear with Mist and Fog 46 7.8 45 7.2 96 96 Calm 30.19 1022 2 3 0.00 0.00
5:23 am 05:23 Clear with Mist and Fog 46 7.8 45 7.2 96 96 Calm 30.19 1022 3 5 0.00 0.00
5:32 am 05:32 Clear with Mist and Fog 44 6.7 44 6.7 100 100 Calm 30.19 1022 2 3 0.00 0.00
5:44 am 05:44 Clear with Mist and Fog 45 7.2 44 6.7 97 97 Calm 30.19 1022 3 5 0.00 0.00
5:53 am 05:53 Clear with Mist and Fog 44 6.7 44 6.7 100 100 Calm 30.18 1022 1 2 0.00 0.00
6:00 am 06:00 Clear with Fog 45 7.2 45 7.2 100 100 Calm 30.19 1022 1 1 0.00 0.00
6:19 am 06:19 Clear with Fog 45 7.2 45 7.2 100 100 Calm 30.20 1023 0 0 0.00 0.00
6:27 am 06:27 Clear with Mist and Fog 45 7.2 45 7.2 100 100 Calm 30.20 1023 1 2 0.00 0.00
6:38 am 06:38 Clear with Fog 45 7.2 44 6.7 97 97 Calm 30.20 1023 0 0 0.00 0.00
6:48 am 06:48 Clear 45 7 45 7 100 100 Calm 30.20 1023 10 16 0.00 0.00
6:53 am 06:53 Clear 44 6.7 44 6.7 100 100 Calm 30.19 1022 10 16 0.00 0.00
7:53 am 07:53 Clear with Patchy Fog 45 7.2 44 6.7 97 97 Calm 30.20 1023 10 16 0.00 0.00
8:53 am 08:53 Sunny 46 7.8 45 7.2 96 96 Calm 30.20 1023 10 16 0.00 0.00
9:53 am 09:53 Sunny 56 13.3 52 11.1 87 87 SSW 5 7 30.21 1023 10 16 0.00 0.00
10:53 am 10:53 Sunny 63 17.2 53 11.7 70 70 S 10 17 30.21 1023 10 16 0.00 0.00
11:53 am 11:53 Sunny 69 20.6 54 12.2 59 59 S 9 15 30.19 1022 10 16 0.00 0.00
12:53 pm 12:53 Sunny 72 22.2 55 12.8 55 55 S 15 24 30.16 1021 10 16 0.00 0.00
1:53 pm 13:53 Partly Cloudy 75 23.9 54 12.2 48 48 S 20 31 30.12 1020 10 16 0.00 0.00
2:53 pm 14:53 Partly Cloudy 74 23.3 53 11.7 48 48 S 15 24 30.09 1019 10 16 0.00 0.00
3:53 pm 15:53 Mostly Sunny 75 23.9 52 11.1 45 45 S 15 24 30.07 1018 10 16 0.00 0.00
4:53 pm 16:53 Sunny 75 23.9 52 11.1 45 45 S 13 20 30.06 1018 10 16 0.00 0.00
5:53 pm 17:53 Sunny 72 22.2 52 11.1 49 49 S 13 20 30.05 1018 10 16 0.00 0.00
6:53 pm 18:53 Clear 69 20.6 51 10.6 53 53 SSE 9 15 30.04 1017 10 16 0.00 0.00
7:53 pm 19:53 Clear 67 19.4 50 10 55 55 S 8 13 30.03 1017 10 16 0.00 0.00
8:53 pm 20:53 Clear 64 17.8 49 9.4 58 58 S 8 13 30.02 1017 10 16 0.00 0.00
9:53 pm 21:53 Clear 63 17.2 49 9.4 60 60 SW 3 6 30.01 1016 10 16 0.00 0.00
10:53 pm 22:53 Clear 60 15.6 48 8.9 64 64 W 3 6 29.99 1016 10 16 0.00 0.00
11:53 pm 23:53 Clear 59 15 47 8.3 64 64 undefined N/A 29.99 1016 10 16 0.00 0.00

Powered by AerisWeather